Regional Weather Roundup
Issued by NWS Green Bay, WI

Home | Current Version | Previous Version | Graphics & Text | Print | Product List | Glossary Off
Versions: 1 2 3 4 5 6 7 8 9 10 11 12 13 14 15 16 17 18 19 20 21 22 23 24 25 26 27 28 29 30 31 32 33 34 35 36 37 38 39 40 41 42 43 44 45 46 47 48 49 50

809
ASUS43 KGRB 251100
RWRGRB

NORTH-CENTRAL AND NORTHEAST WISCONSIN REGIONAL WEATHER ROUNDUP
NATIONAL WEATHER SERVICE GREEN BAY WI
600 AM CDT MON JUL 25 2016

WIZ005-009-010>012-018-019-251200-
NORTH CENTRAL WISCONSIN

CITY           SKY/WX    TMP DP  RH WIND       PRES   REMARKS
IRONWOOD       CLEAR     61  59  94 W7        29.95R
MANITOWISH WTR NOT AVBL
ARBOR VITAE    NOT AVBL
EAGLE RIVER    NOT AVBL
LAND O LAKES   NOT AVBL
RHINELANDER    CLEAR     62  59  90 W7        29.98R
PHILLIPS       NOT AVBL
ANTIGO         NOT AVBL
TOMAHAWK       NOT AVBL
MERRILL        NOT AVBL
$$

WIZ013-073-251200-
NORTHEAST WISCONSIN

CITY           SKY/WX    TMP DP  RH WIND       PRES   REMARKS
IRON MOUNTAIN  CLEAR     65  59  81 W9        29.90R
MARINETTE        N/A    N/A N/A N/A MISG        N/A
$$

WIZ017-030-035>037-045-251200-
CENTRAL WISCONSIN

CITY           SKY/WX    TMP DP  RH WIND       PRES   REMARKS
MEDFORD        NOT AVBL
WAUSAU         CLEAR     64  61  90 NW3       29.96R
MOSINEE        CLEAR     63  63 100 NW9       29.99R
MARSHFIELD     CLEAR     63  59  87 W6        29.99R
WISC RAPIDS    CLEAR     64  60  87 W5        30.00R
STEVENS POINT  NOT AVBL
WAUPACA        NOT AVBL
SHAWANO        NOT AVBL
CLINTONVILLE   NOT AVBL
WAUTOMA        CLEAR     64  63  96 W5        29.98S
$$

WIZ038-039-048-051-251200-
FOX VALLEY

CITY           SKY/WX    TMP DP  RH WIND       PRES   REMARKS
NWS GREEN BAY  CLEAR     65  65 100 W7        29.93R
APPLETON       PTCLDY    64  64 100 W9        29.94S
OSHKOSH        CLEAR     67  62  84 W6        29.95R
FOND DU LAC    CLEAR     68  63  84 W7        29.96R
$$

WIZ022-050-052-251200-
EAST CENTRAL WISCONSIN

CITY           SKY/WX    TMP DP  RH WIND       PRES   REMARKS
EPHRAIM        NOT AVBL
WASHINGTON ISL NOT AVBL
STURGEON BAY   CLEAR     68  63  84 W5        29.92R
MANITOWOC      NOT AVBL
SHEBOYGAN      CLEAR     67  63  87 W7        29.95R
$$

LMZ563-521-522-541>543-251200-
LAKESHORE

STATION/POSITION TIME  TEMP    WIND        PRES    VSBY  WAVE
                       AIR SEA DIR/SP/G                  HT/PER
                 (UTC) (F)     (DEG/KT/KT) (MB)    (MI)  (FT/S)
SHEBOYGAN LKSHOR 1000   72     280/ 12/ 14 1013.4R
KEWAUNEE LKSHORE 1000   69     290/  4/  5 1012.4S
NORTHPORT PIER   1000   70     280/  4/  6 1011.5S
N MID LAKE BUOY  0950   70 68  230/ 12/ 14 1010.3S         2/ 6
S GREEN BAY BUOY 1030   70 74  250/ 12/ 14   N/A
CHAMBERS ISLAND  1000   68     210/  4/  6 1011.9S
MENOMINEE LKSHOR 1000   69     260/  7/ 11 1011.3R
$$




USA.gov is the U.S. government's official web portal to all federal, state and local government web resources and services.